KI4SSU Weather Reports


Display with metric or nautical units.
time (UTC)temp
F
wind
direction
speed
MPH
gust
MPH
rain 1hr
in
rain 24hr
in
rain mn
in
humidity
%
barometer
mb
20260831080435 84 260 1.0 2.0 0.00 0.00 0.00
20260831075935 84 104 1.0 1.0 0.00 0.00 0.00
20260831075436 84 231 2.0 3.0 0.00 0.00 0.00
20260831074936 84 191 2.0 6.0 0.00 0.00 0.00
20260831074435 84 124 1.0 0.0 0.00 0.00 0.00
20260831073935 85 224 4.0 5.0 0.00 0.00 0.00
20260831073435 85 184 4.0 1.0 0.00 0.00 0.00
20260831072935 85 241 3.0 4.0 0.00 0.00 0.00
20260831072435 85 291 4.0 2.0 0.00 0.00 0.00
20260831071936 85 207 2.0 6.0 0.00 0.00 0.00
20260831071435 86 217 4.0 4.0 0.00 0.00 0.00
20260831070935 85 269 4.0 4.0 0.00 0.00 0.00
20260831070436 85 238 4.0 1.0 0.00 0.00 0.00
20260831065935 85 213 2.0 1.0 0.00 0.00 0.00
20260831061436 84 196 0.0 0.0 0.00 0.00 0.00
20260831060936 84 196 0.0 0.0 0.00 0.00 0.00
20260831060436 85 196 0.0 0.0 0.00 0.00 0.00
20260831054436 84 163 0.0 0.0 0.00 0.00 0.00
20260831053436 84 163 0.0 0.0 0.00 0.00 0.00
20260831052936 84 163 0.0 0.0 0.00 0.00 0.00
20260831050436 85 163 0.0 0.0 0.00 0.00 0.00
20260831045936 86 163 0.0 0.0 0.00 0.00 0.00
20260831041436 86 163 0.0 0.0 0.00 0.00 0.00
20260831021437 91 163 0.0 0.0 0.00 0.00 0.00
20260831015437 92 163 0.0 0.0 0.00 0.00 0.00
20260831011937 93 163 0.0 0.0 0.00 0.00 0.00
20260831010937 94 163 0.0 0.0 0.00 0.00 0.00
20260831005937 95 31 0.0 3.0 0.00 0.00 0.00
20260831005437 95 15 2.0 2.0 0.00 0.00 0.00
20260831004939 96 225 2.0 6.0 0.00 0.00 0.00
20260830201938 104 82 2.0 4.0 0.00 0.00 0.00
20260830195938 103 165 5.0 7.0 0.00 0.00 0.00
20260830195439 104 176 1.0 3.0 0.00 0.00 0.00
20260830194439 103 63 4.0 4.0 0.00 0.00 0.00
20260830193939 101 290 5.0 3.0 0.00 0.00 0.00
20260830191053 105 259 6.0 5.0 0.00 0.00 0.00
20260830190939 105 259 6.0 5.0 0.00 0.00 0.00
20260830190439 105 200 6.0 4.0 0.00 0.00 0.00
20260830190050 104 59 5.0 8.0 0.00 0.00 0.00
20260830185939 104 59 5.0 8.0 0.00 0.00 0.00
20260830185045 105 42 3.0 4.0 0.00 0.00 0.00
20260830184939 105 42 3.0 4.0 0.00 0.00 0.00
20260830181028 104 6 3.0 4.0 0.00 0.00 0.00
20260830180939 104 6 3.0 4.0 0.00 0.00 0.00
20260830180024 103 239 4.0 3.0 0.00 0.00 0.00
20260830175939 103 239 4.0 3.0 0.00 0.00 0.00
20260830175622 101 69 6.0 3.0 0.00 0.00 0.00
20260830175439 101 69 6.0 3.0 0.00 0.00 0.00
20260830175020 101 0 4.0 3.0 0.00 0.00 0.00
20260830174939 101 0 4.0 3.0 0.00 0.00 0.00
20260830174016 100 55 4.0 5.0 0.00 0.00 0.00
20260830173939 100 55 4.0 5.0 0.00 0.00 0.00
20260830173614 101 146 4.0 6.0 0.00 0.00 0.00
20260830173439 101 146 4.0 6.0 0.00 0.00 0.00
20260830173012 100 175 5.0 8.0 0.00 0.00 0.00
20260830172938 100 175 5.0 8.0 0.00 0.00 0.00
20260830172610 100 21 2.0 1.0 0.00 0.00 0.00
20260830172439 100 21 2.0 1.0 0.00 0.00 0.00
20260830170939 101 118 2.0 1.0 0.00 0.00 0.00
20260830170531 100 218 2.0 6.0 0.00 0.00 0.00
20260830170439 100 218 2.0 6.0 0.00 0.00 0.00
20260830165438 101 234 5.0 4.0 0.00 0.00 0.00
20260830164939 99 53 4.0 11.0 0.00 0.00 0.00
20260830164439 99 245 7.0 10.0 0.00 0.00 0.00
20260830162939 98 106 3.0 3.0 0.00 0.00 0.00
20260830162439 97 79 4.0 3.0 0.00 0.00 0.00
20260830161939 97 8 4.0 4.0 0.00 0.00 0.00
20260830161439 97 222 5.0 6.0 0.00 0.00 0.00
20260830160939 96 214 4.0 5.0 0.00 0.00 0.00
20260830160439 96 222 4.0 6.0 0.00 0.00 0.00
20260830155939 95 231 6.0 7.0 0.00 0.00 0.00
20260830155439 94 90 6.0 8.0 0.00 0.00 0.00
20260830154938 95 58 5.0 7.0 0.00 0.00 0.00
20260830154439 95 41 3.0 2.0 0.00 0.00 0.00
20260830153939 94 131 2.0 4.0 0.00 0.00 0.00
20260830153439 94 203 5.0 5.0 0.00 0.00 0.00
20260830152939 94 35 4.0 3.0 0.00 0.00 0.00
20260830151439 91 248 2.0 2.0 0.00 0.00 0.00
20260830150939 91 227 6.0 5.0 0.00 0.00 0.00
20260830150439 91 266 3.0 4.0 0.00 0.00 0.00
20260830145940 91 241 4.0 7.0 0.00 0.00 0.00
20260830145440 90 101 1.0 1.0 0.00 0.00 0.00
20260830144940 90 265 5.0 7.0 0.00 0.00 0.00
20260830144440 89 237 5.0 5.0 0.00 0.00 0.00
20260830143440 89 241 3.0 3.0 0.00 0.00 0.00
20260830142940 89 193 5.0 7.0 0.00 0.00 0.00
20260830141940 87 273 3.0 2.0 0.00 0.00 0.00
20260830141440 86 52 3.0 2.0 0.00 0.00 0.00
20260830140940 86 97 4.0 3.0 0.00 0.00 0.00
20260830140440 85 258 3.0 2.0 0.00 0.00 0.00
20260830134940 84 37 2.0 2.0 0.00 0.00 0.00
20260830124940 81 211 1.0 0.0 0.00 0.00 0.00
20260830123940 80 218 1.0 1.0 0.00 0.00 0.00
20260830121940 79 221 0.0 0.0 0.00 0.00 0.00
20260830121440 79 203 0.0 1.0 0.00 0.00 0.00
20260830120440 78 153 2.0 2.0 0.00 0.00 0.00
20260830114940 78 227 0.0 0.0 0.00 0.00 0.00
20260830114440 78 227 0.0 0.0 0.00 0.00 0.00
20260830113441 79 227 0.0 0.0 0.00 0.00 0.00
20260830111440 80 227 0.0 0.0 0.00 0.00 0.00
20260830110440 81 241 0.0 0.0 0.00 0.00 0.00
20260830105440 81 241 0.0 0.0 0.00 0.00 0.00
20260830103940 82 296 2.0 2.0 0.00 0.00 0.00
20260830103440 82 184 3.0 3.0 0.00 0.00 0.00
20260830101940 82 241 2.0 3.0 0.00 0.00 0.00
20260830100440 82 234 2.0 2.0 0.00 0.00 0.00
20260830095941 82 227 1.0 2.0 0.00 0.00 0.00
20260830095441 82 191 1.0 0.0 0.00 0.00 0.00
20260830094940 82 218 1.0 2.0 0.00 0.00 0.00
20260830094441 82 217 0.0 0.0 0.00 0.00 0.00
20260830093441 83 175 0.0 0.0 0.00 0.00 0.00
20260830092941 83 222 1.0 3.0 0.00 0.00 0.00
20260830092441 83 200 1.0 1.0 0.00 0.00 0.00
20260830091441 84 215 1.0 1.0 0.00 0.00 0.00
20260830090941 84 277 2.0 3.0 0.00 0.00 0.00
20260830090441 84 231 2.0 3.0 0.00 0.00 0.00
20260830085941 84 249 1.0 0.0 0.00 0.00 0.00